Timeline UpdatesTrip UpdatesNews PostsPvt PostsTravel TipsAdmin PostsConv PostsFollowed PostsChat RequestsBlog PostsPNR Posts

Disclaimer
Search
 
 
Thu Aug 28, 2014 20:38:59 ISTHomeTrainsΣChainsAtlasPNRForumGalleryNewsFAQTripsMembersLoginFeedback
No Recent News for this Train
Other Trains in the News **new
Latest...
Stops at Vallur Halt wef 16/5/14 Arr : 08:39 Dep: 08:40 am.
Mon May 19, 2014 (07:54PM)
⇐ Return Journey: Train# 57624

57623/Kacheguda-Guntur Passenger (UnReserved)

Aug 09 (9:25PM)
Change Departure Station:
Change Arrival Station:
Post a Train Travel TipPost a Train Travel Tip **new
Post a Comment/Question/Picture/VideoPost a Comment/Question/Picture/Video
Pantry/Catering
✕ NO Pantry Car
✓ Catering Avbl
Loco/Rake Reversals
DHNE/Dhone Junction (3);
RSA - Rake Sharing
57623-57640-57639-57624
Rake/Coach Composition
Loco
GTL WDM-3A
News    PNR    Forum    Time-Table    Availability    Fare Chart    Map    Arr/Dep History    Trips    Gallery    ΣChains    X/O    Timeline    
Travel Time: 11h 45m    58 halts    Distance: 447 km    Avg Speed: 38 km/hr
Type: Passenger
Zone: SCR/South Central
Departs @ 04:15 (Avg 1h 11m late)
Platform# ???
SMTWTFS
Hyderabad Kacheguda/KCG 
Arrives @ 16:00 (Avg 2h 53m late)
Platform# ???
SMTWTFS
Jaggambotla Krishnapuram/JBK 

58 halts. 62 intermediate Stations between Hyderabad Kacheguda and Jaggambotla Krishnapuram

Show ALL intermediate Stations  Show Old Time-Table

#CodeStation NameX/OArrivesAvgDepartsAvgHaltPFDay#KmSpeedElevZoneAddress
1KCG»Hyderabad Kacheguda (5)»  -04:15+1:11--10.048494mSCRHyderabad - 500027, Telangana
2MXTMalakpet (2)  04:17+004:18+01m211.638494mSCRHyderabad, Telangana
3DQRDabirpura (2)  04:20-04:21-1m--12.946500mSCRHyderabad, Telangana
4YKAYakutpura (2)  04:22-04:23-1m--13.649505mSCRHyderabad, Telangana
5HPGHuppuguda (2)  04:26-04:27-1m--16.125520mSCRHyderabad, Telangana
6FMFalaknuma (3)  04:30+1:2704:31+1:331m--17.366523mSCRHyderabad, Telangana
7BDVLBudvel (2)X  04:37+1:3904:38+1:441m--113.939556mSCRHyderabad, Telangana
8URUmdanagar (3)X  04:48+1:4904:49+2:041m--120.499581mSCRHyderabad, Telangana
9TMXTimmapur (2)  04:59+2:0805:00+2:251m--136.975582mSCRMahabubnagar Dist., Telangana
10SHNRShadnagar (3)  05:12+2:2805:13+2:461m--151.8116648mSCRMahabubnagar Dist., Telangana
11BABRBalanagar (3)  05:20+2:4805:21+2:551m--165.482566mSCR, Telangana
12RRGARanga Reddy Guda (1)  05:25-05:26-1m1170.861564mSCR, Telangana
13RJAPRajapur (1)  05:31-05:32-1m1175.995541mSCR, Telangana
14GLYGollapally (1)  05:35+3:0205:36+3:031m1180.765556mSCR, Telangana
15JCLJadcherla (3)X  05:43+3:1305:45+3:162m--188.3115545mSCR509301, Telangana
16DTPDivitipalli (2)X  05:49+3:2705:50+3:311m--195.988520mSCRMahbubnagar Dist., Telangana
17YNGYenugonda (1)  05:54-05:55-1m11101.824508mSCRMahabubnagar Dist., Telangana
18MBNRMahbubnagar (3)X  06:05+3:2206:10+3:375m--1105.851500mSCRMahbubnagar, Telangana
19MHBTMahbubnagar Town Halt (1)  06:13-06:14-1m11108.468500mSCRMahbubnagar, Telangana
20MQNManyamkonda (1)X  06:24+3:5706:25+3:581m11119.866410mSCRMahbubnagar Dist., Telangana
21KTKAKotakadra (1)  06:29-06:30-1m11124.237409mSCRMahbubnagar Dist., Telangana
22DKCDevarkadra (1)  06:40+3:5506:41+3:591m11130.371390mSCRMahbubnagar Dist., Telangana
23DKURDokur (1)  06:45-06:46-1m11135.025383mSCRMahbubnagar Dist, Telangana
24KQQKaukuntla (1)  07:00+3:5207:01+3:571m11140.9101372mSCR, Telangana
25KXIKurumurthi (1)  07:04-07:05-1m11145.9128361mSCRMahbubnagar Dist., Telangana
26KONNKonnur (1)X  07:09-07:10-1m11154.521346mSCRMahbubnagar Dist., Telangana
27WPRWanaparti Road (2)  07:24+3:5507:25+3:571m--1159.361330mSCRMahbubnagar Dist., Telangana
28AJKAjjakolu (1)X  07:29-07:30-1m11163.321316mSCR, Telangana
29SRNRSriramnagar (2)  07:44+3:5607:45+3:581m--1168.362311mSCRMahbubnagar Dist., Telangana
30ARPLArepalli Halt (1)  07:49-07:50-1m11172.428301mSCRMahbubnagar Dist., Telangana
31GWDGadwal Junction (2)  08:08+3:3808:10+3:392m--1180.954327mSCRMahbubnagar Dist., Telangana
32PDOPoodoor (1)  08:19+3:4608:20+3:471m11189.198330mSCRMahabubnagar Dist 509125, Telangana
33PDNAPeddadinne (1)  08:24-08:25-1m11195.642319mSCR, Telangana
34IKIItikyala (1)  08:30+3:4008:31+3:431m11199.170324mSCR, Telangana
35VAHValluru Halt  08:39-08:40-1m--1208.549317mSCRVallur Road, Telangana
36MOAManopad (1)X  08:45+3:5908:46+4:011m11212.659310mSCRMahbubnagar Dist., Telangana
37SBBJSri Bala Brahmeswara Jogulamba Halt (1)  09:00-09:01-1m11226.418312mSCRMahabubnagar Dist., Telangana
38ALPRAlampur Road (1)X  09:09+3:3909:10+3:401m11228.910308mSCR, Telangana
39KRNTKurnool City (3)  09:55+2:5710:00+2:575m--1236.237293mSCRKurnool Ph:08518-220110, Andhra Pradesh
40KOLAKotla (1)  10:04-10:05-1m11238.635288mSCRKurnool, Andhra Pradesh
41DUUDupadu (1)  10:19+3:1610:20+3:171m11246.975310mSCRRayalaseema Region, Andhra Pradesh
42UKDUlindakonda (1)  10:29+2:4910:30+2:491m11258.292329mSCRUlindakonda, Andhra Pradesh
43VDIVeldurti (2)  10:38+3:0810:39+3:131m--1270.449341mSCRVeldurthi, Andhra Pradesh
44BVOBogolu (1)O  10:50+3:5110:51+4:031m11279.417371mSCRBogolu Station, Andhra Pradesh
45DHNEDhone Junction (3)↵¶11:30+2:4811:50+3:2220m--1290.553425mSCR518222, Andhra Pradesh
46MLKMalkapuram  12:05+3:2712:06+3:301m--1303.770459mSCRKurnool, Andhra Pradesh
47RGMRangapuramX  12:16+3:3012:17+3:321m--1315.482440mSCRKurnool, Andhra Pradesh
48BMHBetamcherla (2)X  12:25+3:3212:27+3:322m--1326.466425mSCRBetamcherla, Andhra Pradesh
49BEYBugganipalli Cement Nagar  12:33+3:4112:34+3:441m--1333.055386mSCRKurnool, Andhra Pradesh
50KEFKrishnama Kona (1)  12:44+3:5812:45+3:581m11342.158314mSCRCement Nagar Tammarajupalli Rd, Andhra Pradesh
51PNMPanyam (2)  12:55+5:5812:56+6:191m--1351.715227mSCRKurnool Dist., Andhra Pradesh
52NDLNandyal (3)  13:55+2:5714:00+3:005m--1366.654216mSCRPhone Number : 9247019958, Andhra Pradesh
53GZLGazulapalliX  14:16+3:1014:17+3:141m--1381.050238mSCRKurnool, Andhra Pradesh
54CMZChelama (1)  14:30+3:0614:31+3:091m11391.735314mSCRKurnool, Andhra Pradesh
55DMTDiguvametta  15:00+2:4515:02+2:462m--1408.431315mSCRRayalaseema Region, Andhra Pradesh
56KSTEKrishnamsetty Palle  15:15-15:16-1m--1415.132278mSCRPrakasam, Andhra Pradesh
57GIDGiddalur (2)X  15:25+2:3915:27+2:412m--1420.048269mSCRGiddalur ph.no 08405-242003, Andhra Pradesh
58GMAGudimetta  15:40-15:41-1m--1430.438231mSCRBestavaripeta, Andhra Pradesh
59SDVSomidevipalle  15:48+2:5015:49+2:531m--1434.964225mSCRPhone Number : 9441901913, Andhra Pradesh
60JBK•Jaggambotla Krishnapuram•X  16:00+2:5316:01+2:551m--1446.645200mSCRPhone;08406-200100, Andhra Pradesh
61CBMCumbum (1)  16:10+3:0316:12+3:042m11453.464199mSCRprakasham dist, Andhra Pradesh
62TLUTarlupadu (1)  16:26+2:5916:27+3:031m11468.366164mSCRPhone Number : 08499-246232, Andhra Pradesh
63MRKMarkapur Road (2)  16:37+3:0216:39+3:032m11479.262156mSCRmarkapur road ph.no 08596-222028, Andhra Pradesh
64GJJGajjelakonda (1)  16:52+3:1016:53+3:121m11492.650153mSCRPrakasam. Telephone 08499-247233, Andhra Pradesh
65DKDDonakonda (3)  17:06+3:1117:08+3:122m--1503.541154mSCRPhone:08408-272037, Andhra Pradesh
66POOPotlapadu (1)  17:17+3:1117:18+3:121m11509.758147mSCRAndhra Pradesh, Andhra Pradesh
67KCDKurichedu (1)  17:25+3:1417:26+3:151m11516.568121mSCRPrakasam dt, Andhra Pradesh
68GKMGundlakamma (1)  17:36+3:1517:37+3:151m11527.73391mSCRVinukonda, Andhra Pradesh
69CEMCheekategalapalem  17:45+3:1817:46+3:191m--1532.16678mSCRVinukonda, Andhra Pradesh
70VKNVinukonda (1)  17:54+3:1717:56+3:202m11540.95395mSCRVinukonda, Andhra Pradesh
71SYMSavalyapuram  18:07+3:1618:08+3:191m--1550.66987mSCRGuntur Phone Number : 08646-259211, Andhra Pradesh
72VLEVellalcheruvu Halt  18:15-18:16-1m--1558.62187mSCRVellalacheruvu, Andhra Pradesh
73SABSantamagulur  18:26+3:1918:27+3:211m--1562.16475mSCRGuntur, Andhra Pradesh
74MUKMunumakaX  18:35+3:1918:36+3:221m--1570.66769mSCR08647-219555, Andhra Pradesh
75NRTNarasaraopet (3)X  18:43+3:2618:45+3:292m--1578.45474mSCRNarsaraopet ph.no 08647-223131, Andhra Pradesh
76STURSatulur  18:57+3:3918:58+3:411m--1589.14159mSCRGuntur, Andhra Pradesh
77NDPUNudurupadu  19:07+3:3419:08+3:351m--1595.35449mSCRCoastal Andhra Region, Andhra Pradesh
78PPMPhirangipuram  19:16+3:4219:17+3:431m--1602.55862mSCRPhirangipuram, Andhra Pradesh
79PRCAPerecherla (1)  19:27+3:5419:28+3:591m11612.13875mSCRPerecherlaPRCA Station Phone Number : 0863-2290580, Andhra Pradesh
80NLPDNallapadu Junction (3)  19:38+3:2919:40+3:382m--1618.5446mSCRPhone Number : 0863-2119153, Andhra Pradesh
81GNTGuntur Junction (7)  21:00+2:15---1623.4-37mSCRGuntur, Andhra Pradesh
Scroll to Top
Scroll to Bottom